Regional Weather Roundup
Issued by NWS Cleveland, OH

Home | Current Version | Previous Version | Text Only | Print | Product List | Glossary Off
Versions: 1 2 3 4 5 6 7 8 9 10 11 12 13 14 15 16 17 18 19 20 21 22 23 24 25 26 27 28 29 30 31 32 33 34 35 36 37 38 39 40 41 42 43 44 45 46 47 48 49 50

000
ASUS41 KCLE 132310
RWRCLE
OHIO REGIONAL WEATHER ROUNDUP
NATIONAL WEATHER SERVICE CLEVELAND, OH
600 PM EST SAT FEB 13 2016

NOTE: "FAIR" INDICATES FEW OR NO CLOUDS BELOW 12,000 FEET WITH NO
SIGNIFICANT WEATHER AND/OR OBSTRUCTIONS TO VISIBILITY.

OHZ001>008-015>018-024>027-034-035-043-044-140000-
   NORTHWEST OHIO

CITY           SKY/WX    TMP DP  RH WIND       PRES   REMARKS
DEFIANCE       FLURRIES  16   5  62 W6        30.48R WCI   7
FINDLAY        LGT SNOW  15   8  73 W13       30.45S WCI   1
TOLEDO EXPRESS CLOUDY    15   6  67 W8        30.46R WCI   4
TOLEDO EXEC    LGT SNOW  15   7  70 NW10      30.47R WCI   2
LIMA           CLOUDY    14   4  64 W16       30.46R WCI  -2
$$

OHZ009>014-019>023-028>033-038-089-140000-
   NORTHEAST OHIO

CITY           SKY/WX    TMP DP  RH WIND       PRES   REMARKS
CLE-HOPKINS    MOCLDY    12   1  61 W9        30.46R WCI   0
CLE-LAKEFRONT  LGT SNOW  14   6  70 NW16G23   30.44R WCI  -2
CUY CO. ARPT   MOCLDY    14   1  57 NW16G25   30.42R WCI  -2
LORAIN-ELYRIA  LGT SNOW  11   7  84 NW6       30.44S FOG     WCI   1
ASHTABULA      FLURRIES   9  -2  61 NW13G23   30.40R WCI  -7
AKRON-CANTON   PTCLDY     7  -3  64 NW7       30.39S WCI  -5
WOOSTER        LGT SNOW   9   4  80 W6        30.42R WCI  -1
MANSFIELD      CLOUDY    11   0  61 W9        30.40R WCI  -2
YOUNGSTOWN     LGT SNOW   8   2  76 W9        30.38R WCI  -5
$$

OHZ042-051>053-060>062-070>072-077>081-140000-
  SOUTHWEST OHIO

CITY           SKY/WX    TMP DP  RH WIND       PRES   REMARKS
CINC-COVINGTON PTCLDY    17   1  49 NW7       30.51R WCI   8
CINC-LUNKEN    CLEAR     17   1  49 N12       30.56R WCI   4
HAMILTON       CLEAR     17   1  49 W8        30.54R WCI   7
DAYTON         PTCLDY    13   0  56 NW9       30.49R WCI   1
WRIGHT-PAT AFB PTCLDY    15  -2  48 W8        30.49S WCI   4
DAYTON GENERAL CLEAR     14  -2  49 NW7       30.48S WCI   4
WILMINGTON     CLEAR     13  -2  51 NW9       30.48R WCI   1
$$

OHZ036-037-039>041-045>050-054>059-063>069-073>076-082>088-140000-
  CENTRAL AND SOUTHEAST OHIO

CITY           SKY/WX    TMP DP  RH WIND       PRES   REMARKS
COLUMBUS       MOCLDY    14  -1  51 W15       30.48R WCI  -1
OSU AIRPORT    CLOUDY    14   2  58 W13       30.47R WCI   0
BOLTON FIELD   MOCLDY    12   3  67 W6        30.48S WCI   3
RICKENBACK AFB PTCLDY    13   4  67 W8        30.49R WCI   2
NEWARK         PTCLDY    12   1  61 W5        30.46R WCI   4
MARION         LGT SNOW  14   5  67 NW10      30.45S VSB 1   WCI   1
LANCASTER      MOCLDY    13   2  61 W7        30.48R WCI   3
ZANESVILLE     CLOUDY    15   2  56 W8        30.45R WCI   4
NEW PHILLY     CLOUDY    11  32 100 NW9       30.45R WCI  -2
$$



USA.gov is the U.S. government's official web portal to all federal, state and local government web resources and services.